Time,TemperatureF,DewpointF,PressureIn,WindDirection,WindDirectionDegrees,WindSpeedMPH,WindSpeedGustMPH,Humidity,HourlyPrecipIn,Conditions,Clouds,dailyrainin,SolarRadiationWatts/m^2,SoftwareType,DateUTC
2013-03-11 00:02:00,63.7,34.0,29.90,SSE,162,4.0,9.0,33,0.00,,,0.00,0,Wunderground v.1.15,2013-03-11 04:02:00,
2013-03-11 00:04:00,63.9,34.2,29.90,South,172,4.0,9.0,33,0.00,,,0.00,0,Wunderground v.1.15,2013-03-11 04:04:00,
2013-03-11 00:07:00,63.9,34.2,29.90,South,171,4.0,4.0,33,0.00,,,0.00,0,Wunderground v.1.15,2013-03-11 04:07:00,
2013-03-11 00:09:00,63.9,34.2,29.90,SSE,162,3.0,4.0,33,0.00,,,0.00,0,Wunderground v.1.15,2013-03-11 04:09:00,
2013-03-11 00:14:00,63.9,34.2,29.90,SSE,163,1.0,11.0,33,0.00,,,0.00,0,Wunderground v.1.15,2013-03-11 04:14:00,
2013-03-11 00:20:00,63.5,33.9,29.91,SSE,168,2.0,5.0,33,0.00,,,0.00,0,Wunderground v.1.15,2013-03-11 04:20:00,
2013-03-11 00:25:00,63.5,33.9,29.90,South,171,3.0,5.0,33,0.00,,,0.00,0,Wunderground v.1.15,2013-03-11 04:25:00,
2013-03-11 00:31:00,63.4,33.8,29.90,SE,146,2.0,4.0,33,0.00,,,0.00,0,Wunderground v.1.15,2013-03-11 04:31:00,
2013-03-11 00:37:00,63.4,33.8,29.90,SSE,162,3.0,3.0,33,0.00,,,0.00,0,Wunderground v.1.15,2013-03-11 04:37:00,
2013-03-11 00:42:00,63.3,33.7,29.90,SSE,159,3.0,4.0,33,0.00,,,0.00,0,Wunderground v.1.15,2013-03-11 04:42:00,
2013-03-11 00:48:00,63.3,33.7,29.90,SSE,160,2.0,2.0,33,0.00,,,0.00,0,Wunderground v.1.15,2013-03-11 04:48:00,
2013-03-11 00:53:00,63.3,33.7,29.89,South,175,1.0,8.0,33,0.00,,,0.00,0,Wunderground v.1.15,2013-03-11 04:53:00,
2013-03-11 00:59:00,63.4,33.8,29.90,South,172,2.0,8.0,33,0.00,,,0.00,0,Wunderground v.1.15,2013-03-11 04:59:00,
2013-03-11 01:04:00,63.3,33.7,29.89,South,175,6.0,8.0,33,0.00,,,0.00,0,Wunderground v.1.15,2013-03-11 05:04:00,
2013-03-11 01:09:00,63.2,33.6,29.90,SSE,152,9.0,9.0,33,0.00,,,0.00,0,Wunderground v.1.15,2013-03-11 05:09:00,
2013-03-11 01:14:00,63.1,33.5,29.89,South,175,8.0,9.0,33,0.00,,,0.00,0,Wunderground v.1.15,2013-03-11 05:14:00,
2013-03-11 01:20:00,63.1,33.5,29.90,South,174,5.0,6.0,33,0.00,,,0.00,0,Wunderground v.1.15,2013-03-11 05:20:00,
2013-03-11 01:25:00,62.8,33.2,29.90,SSE,154,4.0,6.0,33,0.00,,,0.00,0,Wunderground v.1.15,2013-03-11 05:25:00,
2013-03-11 01:31:00,62.5,33.0,29.90,South,171,4.0,7.0,33,0.00,,,0.00,0,Wunderground v.1.15,2013-03-11 05:31:00,
2013-03-11 01:37:00,62.5,33.0,29.89,SSE,159,2.0,7.0,33,0.00,,,0.00,0,Wunderground v.1.15,2013-03-11 05:37:00,
2013-03-11 01:42:00,62.4,32.9,29.89,SSE,148,4.0,4.0,33,0.00,,,0.00,0,Wunderground v.1.15,2013-03-11 05:42:00,
2013-03-11 01:49:00,62.2,32.7,29.89,SE,143,0.0,0.0,33,0.00,,,0.00,0,Wunderground v.1.15,2013-03-11 05:49:00,
2013-03-11 01:54:00,62.1,32.6,29.88,South,174,7.0,7.0,33,0.00,,,0.00,0,Wunderground v.1.15,2013-03-11 05:54:00,
2013-03-11 02:00:00,62.1,32.6,29.89,SSE,158,2.0,2.0,33,0.00,,,0.00,0,Wunderground v.1.15,2013-03-11 06:00:00,
2013-03-11 02:05:00,62.2,32.7,29.88,South,185,3.0,6.0,33,0.00,,,0.00,0,Wunderground v.1.15,2013-03-11 06:05:00,
2013-03-11 02:10:00,62.0,32.5,29.89,SSE,166,5.0,7.0,33,0.00,,,0.00,0,Wunderground v.1.15,2013-03-11 06:10:00,
2013-03-11 02:15:00,62.0,32.5,29.89,SSE,167,3.0,9.0,33,0.00,,,0.00,0,Wunderground v.1.15,2013-03-11 06:15:00,
2013-03-11 02:20:00,61.9,32.5,29.89,SSE,157,1.0,3.0,33,0.00,,,0.00,0,Wunderground v.1.15,2013-03-11 06:20:00,
2013-03-11 02:25:00,61.9,32.5,29.88,SE,144,1.0,9.0,33,0.00,,,0.00,0,Wunderground v.1.15,2013-03-11 06:25:00,
2013-03-11 02:31:00,61.8,32.4,29.88,SE,141,2.0,9.0,33,0.00,,,0.00,0,Wunderground v.1.15,2013-03-11 06:31:00,
2013-03-11 02:37:00,61.6,32.2,29.89,SSE,166,3.0,9.0,33,0.00,,,0.00,0,Wunderground v.1.15,2013-03-11 06:37:00,
2013-03-11 02:42:00,61.5,32.1,29.88,SSE,165,2.0,8.0,33,0.00,,,0.00,0,Wunderground v.1.15,2013-03-11 06:42:00,
2013-03-11 02:47:00,61.5,32.1,29.88,SSE,165,5.0,8.0,33,0.00,,,0.00,0,Wunderground v.1.15,2013-03-11 06:47:00,
2013-03-11 02:52:00,61.5,32.1,29.87,SSE,157,3.0,7.0,33,0.00,,,0.00,0,Wunderground v.1.15,2013-03-11 06:52:00,
2013-03-11 02:57:00,61.6,32.2,29.88,SE,142,1.0,15.0,33,0.00,,,0.00,0,Wunderground v.1.15,2013-03-11 06:57:00,
2013-03-11 03:03:00,61.5,32.1,29.87,South,169,2.0,6.0,33,0.00,,,0.00,0,Wunderground v.1.15,2013-03-11 07:03:00,
2013-03-11 03:08:00,61.4,32.0,29.87,SSE,168,4.0,8.0,33,0.00,,,0.00,0,Wunderground v.1.15,2013-03-11 07:08:00,
2013-03-11 03:13:00,61.2,31.8,29.87,SSE,163,5.0,5.0,33,0.00,,,0.00,0,Wunderground v.1.15,2013-03-11 07:13:00,
2013-03-11 03:18:00,61.2,31.8,29.87,SE,140,2.0,3.0,33,0.00,,,0.00,0,Wunderground v.1.15,2013-03-11 07:18:00,
2013-03-11 03:23:00,61.2,31.8,29.87,SSE,156,1.0,7.0,33,0.00,,,0.00,0,Wunderground v.1.15,2013-03-11 07:23:00,
2013-03-11 03:28:00,61.0,31.7,29.87,SSE,155,2.0,2.0,33,0.00,,,0.00,0,Wunderground v.1.15,2013-03-11 07:28:00,
2013-03-11 03:35:00,60.8,31.5,29.87,SE,134,1.0,2.0,33,0.00,,,0.00,0,Wunderground v.1.15,2013-03-11 07:35:00,
2013-03-11 03:40:00,60.8,31.5,29.87,SSE,157,0.0,3.0,33,0.00,,,0.00,0,Wunderground v.1.15,2013-03-11 07:40:00,
2013-03-11 03:45:00,60.6,32.1,29.86,South,188,1.0,3.0,34,0.00,,,0.00,0,Wunderground v.1.15,2013-03-11 07:45:00,
2013-03-11 03:50:00,60.4,31.1,29.86,SE,137,4.0,5.0,33,0.00,,,0.00,0,Wunderground v.1.15,2013-03-11 07:50:00,
2013-03-11 03:55:00,60.3,31.8,29.85,SSE,155,0.0,5.0,34,0.00,,,0.00,0,Wunderground v.1.15,2013-03-11 07:55:00,
2013-03-11 04:00:00,60.3,31.8,29.85,SSE,164,2.0,7.0,34,0.00,,,0.00,0,Wunderground v.1.15,2013-03-11 08:00:00,
2013-03-11 04:05:00,60.2,31.7,29.85,SSE,165,2.0,7.0,34,0.00,,,0.00,0,Wunderground v.1.15,2013-03-11 08:05:00,
2013-03-11 04:10:00,60.5,32.0,29.85,SSE,161,3.0,11.0,34,0.00,,,0.00,0,Wunderground v.1.15,2013-03-11 08:10:00,
2013-03-11 04:15:00,60.4,31.1,29.84,SSE,166,2.0,11.0,33,0.00,,,0.00,0,Wunderground v.1.15,2013-03-11 08:15:00,
2013-03-11 04:20:00,60.5,32.0,29.84,SSE,161,1.0,5.0,34,0.00,,,0.00,0,Wunderground v.1.15,2013-03-11 08:20:00,
2013-03-11 04:25:00,60.3,31.8,29.84,SSE,159,2.0,5.0,34,0.00,,,0.00,0,Wunderground v.1.15,2013-03-11 08:25:00,
2013-03-11 04:30:00,60.2,31.7,29.84,SSE,151,4.0,4.0,34,0.00,,,0.00,0,Wunderground v.1.15,2013-03-11 08:30:00,
2013-03-11 04:35:00,60.3,31.8,29.84,South,172,0.0,6.0,34,0.00,,,0.00,0,Wunderground v.1.15,2013-03-11 08:35:00,
2013-03-11 04:40:00,60.2,31.7,29.83,SSE,150,5.0,8.0,34,0.00,,,0.00,0,Wunderground v.1.15,2013-03-11 08:40:00,
2013-03-11 04:47:00,60.2,31.7,29.83,SSE,157,1.0,8.0,34,0.00,,,0.00,0,Wunderground v.1.15,2013-03-11 08:47:00,
2013-03-11 04:52:00,60.1,31.6,29.84,SSE,164,2.0,4.0,34,0.00,,,0.00,0,Wunderground v.1.15,2013-03-11 08:52:00,
2013-03-11 04:57:00,60.0,32.2,29.83,SSE,157,0.0,7.0,35,0.00,,,0.00,0,Wunderground v.1.15,2013-03-11 08:57:00,
2013-03-11 05:02:00,59.8,32.1,29.83,SSE,156,2.0,3.0,35,0.00,,,0.00,0,Wunderground v.1.15,2013-03-11 09:02:00,
2013-03-11 05:07:00,59.8,32.1,29.83,SSE,155,0.0,5.0,35,0.00,,,0.00,0,Wunderground v.1.15,2013-03-11 09:07:00,
2013-03-11 05:12:00,59.8,32.1,29.84,South,169,1.0,6.0,35,0.00,,,0.00,0,Wunderground v.1.15,2013-03-11 09:12:00,
2013-03-11 05:17:00,59.8,32.1,29.84,WNW,298,1.0,6.0,35,0.00,,,0.00,0,Wunderground v.1.15,2013-03-11 09:17:00,
2013-03-11 05:22:00,59.9,32.2,29.83,South,169,2.0,7.0,35,0.00,,,0.00,0,Wunderground v.1.15,2013-03-11 09:22:00,
2013-03-11 05:27:00,59.9,32.9,29.84,SSE,161,0.0,7.0,36,0.00,,,0.00,0,Wunderground v.1.15,2013-03-11 09:27:00,
2013-03-11 05:32:00,59.8,32.8,29.83,SSE,160,1.0,6.0,36,0.00,,,0.00,0,Wunderground v.1.15,2013-03-11 09:32:00,
2013-03-11 05:38:00,59.6,32.6,29.83,SSE,155,4.0,4.0,36,0.00,,,0.00,0,Wunderground v.1.15,2013-03-11 09:38:00,
2013-03-11 05:43:00,59.6,31.9,29.83,SSE,153,0.0,4.0,35,0.00,,,0.00,0,Wunderground v.1.15,2013-03-11 09:43:00,
2013-03-11 05:49:00,59.6,32.6,29.83,SSE,153,0.0,0.0,36,0.00,,,0.00,0,Wunderground v.1.15,2013-03-11 09:49:00,
2013-03-11 05:54:00,59.4,32.4,29.84,SSE,153,4.0,4.0,36,0.00,,,0.00,0,Wunderground v.1.15,2013-03-11 09:54:00,
2013-03-11 05:59:00,59.4,33.1,29.84,SSE,159,1.0,4.0,37,0.00,,,0.00,0,Wunderground v.1.15,2013-03-11 09:59:00,
2013-03-11 06:04:00,59.4,33.1,29.84,SSE,159,2.0,4.0,37,0.00,,,0.00,0,Wunderground v.1.15,2013-03-11 10:04:00,
2013-03-11 06:10:00,59.3,33.0,29.84,SSE,159,1.0,2.0,37,0.00,,,0.00,0,Wunderground v.1.15,2013-03-11 10:10:00,
2013-03-11 06:15:00,59.3,33.0,29.84,SE,132,2.0,5.0,37,0.00,,,0.00,0,Wunderground v.1.15,2013-03-11 10:15:00,
2013-03-11 06:20:00,59.2,32.9,29.84,SE,133,0.0,1.0,37,0.00,,,0.00,0,Wunderground v.1.15,2013-03-11 10:20:00,
2013-03-11 06:25:00,59.2,32.9,29.84,SSE,165,2.0,8.0,37,0.00,,,0.00,0,Wunderground v.1.15,2013-03-11 10:25:00,
2013-03-11 06:30:00,59.2,32.9,29.84,SSE,153,1.0,2.0,37,0.00,,,0.00,0,Wunderground v.1.15,2013-03-11 10:30:00,
2013-03-11 06:35:00,59.3,33.0,29.85,SSW,193,0.0,3.0,37,0.00,,,0.00,0,Wunderground v.1.15,2013-03-11 10:35:00,
2013-03-11 06:40:00,59.1,33.5,29.85,South,172,1.0,2.0,38,0.00,,,0.00,0,Wunderground v.1.15,2013-03-11 10:40:00,
2013-03-11 06:45:00,58.9,33.3,29.84,SSE,147,2.0,4.0,38,0.00,,,0.00,0,Wunderground v.1.15,2013-03-11 10:45:00,
2013-03-11 06:50:00,58.9,33.3,29.85,SSE,147,0.0,1.0,38,0.00,,,0.00,0,Wunderground v.1.15,2013-03-11 10:50:00,
2013-03-11 06:55:00,58.8,33.2,29.84,SE,135,0.0,4.0,38,0.00,,,0.00,0,Wunderground v.1.15,2013-03-11 10:55:00,
2013-03-11 07:00:00,58.6,33.7,29.84,SE,135,3.0,3.0,39,0.00,,,0.00,0,Wunderground v.1.15,2013-03-11 11:00:00,
2013-03-11 07:05:00,58.6,33.7,29.85,SE,136,3.0,3.0,39,0.00,,,0.00,0,Wunderground v.1.15,2013-03-11 11:05:00,
2013-03-11 07:10:00,58.8,33.2,29.85,SSE,160,0.0,6.0,38,0.00,,,0.00,0,Wunderground v.1.15,2013-03-11 11:10:00,
2013-03-11 07:16:00,59.0,33.4,29.85,SSE,155,1.0,6.0,38,0.00,,,0.00,0,Wunderground v.1.15,2013-03-11 11:16:00,
2013-03-11 07:21:00,58.8,33.2,29.85,SSE,154,0.0,1.0,38,0.00,,,0.00,0,Wunderground v.1.15,2013-03-11 11:21:00,
2013-03-11 07:26:00,58.6,33.7,29.85,SSE,154,0.0,2.0,39,0.00,,,0.00,0,Wunderground v.1.15,2013-03-11 11:26:00,
2013-03-11 07:32:00,58.3,33.4,29.85,SSE,154,0.0,1.0,39,0.00,,,0.00,0,Wunderground v.1.15,2013-03-11 11:32:00,
2013-03-11 07:37:00,58.3,33.4,29.85,SSE,154,1.0,4.0,39,0.00,,,0.00,0,Wunderground v.1.15,2013-03-11 11:37:00,
2013-03-11 07:42:00,58.2,34.0,29.84,SSE,153,0.0,2.0,40,0.00,,,0.00,0,Wunderground v.1.15,2013-03-11 11:42:00,
2013-03-11 07:47:00,58.1,33.9,29.84,SSE,154,0.0,2.0,40,0.00,,,0.00,0,Wunderground v.1.15,2013-03-11 11:47:00,
2013-03-11 07:52:00,58.0,33.8,29.85,SSE,154,0.0,2.0,40,0.00,,,0.00,0,Wunderground v.1.15,2013-03-11 11:52:00,
2013-03-11 07:57:00,57.9,33.7,29.85,SSE,154,0.0,3.0,40,0.00,,,0.00,0,Wunderground v.1.15,2013-03-11 11:57:00,
2013-03-11 08:02:00,58.0,34.4,29.86,SSE,154,2.0,3.0,41,0.00,,,0.00,0,Wunderground v.1.15,2013-03-11 12:02:00,
2013-03-11 08:07:00,58.0,34.4,29.85,SSW,195,0.0,3.0,41,0.00,,,0.00,0,Wunderground v.1.15,2013-03-11 12:07:00,
2013-03-11 08:12:00,58.2,34.6,29.85,SSE,160,4.0,6.0,41,0.00,,,0.00,0,Wunderground v.1.15,2013-03-11 12:12:00,
2013-03-11 08:17:00,58.5,34.2,29.85,SSE,160,0.0,11.0,40,0.00,,,0.00,0,Wunderground v.1.15,2013-03-11 12:17:00,
2013-03-11 08:22:00,58.8,35.1,29.85,South,178,1.0,5.0,41,0.00,,,0.00,0,Wunderground v.1.15,2013-03-11 12:22:00,
2013-03-11 08:27:00,58.7,35.0,29.86,SSE,154,3.0,5.0,41,0.00,,,0.00,0,Wunderground v.1.15,2013-03-11 12:27:00,
2013-03-11 08:32:00,58.7,35.0,29.86,ESE,121,1.0,4.0,41,0.00,,,0.00,0,Wunderground v.1.15,2013-03-11 12:32:00,
2013-03-11 08:37:00,58.9,35.2,29.85,SSE,160,2.0,4.0,41,0.00,,,0.00,0,Wunderground v.1.15,2013-03-11 12:37:00,
2013-03-11 08:42:00,59.1,36.0,29.86,SSE,166,3.0,7.0,42,0.00,,,0.00,0,Wunderground v.1.15,2013-03-11 12:42:00,
2013-03-11 08:47:00,59.2,35.5,29.85,South,182,1.0,7.0,41,0.00,,,0.00,0,Wunderground v.1.15,2013-03-11 12:47:00,
2013-03-11 08:52:00,59.0,35.9,29.85,SSE,156,1.0,2.0,42,0.00,,,0.00,0,Wunderground v.1.15,2013-03-11 12:52:00,
2013-03-11 08:57:00,58.9,36.4,29.86,SSE,155,0.0,4.0,43,0.00,,,0.00,0,Wunderground v.1.15,2013-03-11 12:57:00,
2013-03-11 09:02:00,58.9,36.4,29.85,SSE,159,1.0,4.0,43,0.00,,,0.00,0,Wunderground v.1.15,2013-03-11 13:02:00,
2013-03-11 09:07:00,59.0,36.5,29.85,SSE,160,0.0,4.0,43,0.00,,,0.00,0,Wunderground v.1.15,2013-03-11 13:07:00,
2013-03-11 09:12:00,59.0,36.5,29.85,SSE,161,1.0,4.0,43,0.00,,,0.00,0,Wunderground v.1.15,2013-03-11 13:12:00,
2013-03-11 09:17:00,59.1,37.2,29.86,SSE,162,1.0,1.0,44,0.00,,,0.00,0,Wunderground v.1.15,2013-03-11 13:17:00,
2013-03-11 09:22:00,59.2,36.7,29.85,SSE,162,1.0,2.0,43,0.00,,,0.00,0,Wunderground v.1.15,2013-03-11 13:22:00,
2013-03-11 09:28:00,59.3,36.8,29.86,SSE,162,3.0,3.0,43,0.00,,,0.00,0,Wunderground v.1.15,2013-03-11 13:28:00,
2013-03-11 09:33:00,59.3,37.4,29.85,SSE,162,0.0,3.0,44,0.00,,,0.00,0,Wunderground v.1.15,2013-03-11 13:33:00,
2013-03-11 09:38:00,59.4,37.5,29.85,SSE,168,2.0,3.0,44,0.00,,,0.00,0,Wunderground v.1.15,2013-03-11 13:38:00,
2013-03-11 09:43:00,59.4,38.6,29.85,SSE,168,0.0,4.0,46,0.00,,,0.00,0,Wunderground v.1.15,2013-03-11 13:43:00,
2013-03-11 09:48:00,59.4,38.6,29.85,SSE,168,0.0,1.0,46,0.00,,,0.00,0,Wunderground v.1.15,2013-03-11 13:48:00,
2013-03-11 09:53:00,59.4,38.6,29.85,SSE,157,7.0,7.0,46,0.00,,,0.00,0,Wunderground v.1.15,2013-03-11 13:53:00,
2013-03-11 09:58:00,59.6,38.8,29.85,SSE,162,3.0,4.0,46,0.00,,,0.00,0,Wunderground v.1.15,2013-03-11 13:58:00,
2013-03-11 10:04:00,59.8,39.0,29.85,SSE,162,0.0,5.0,46,0.00,,,0.00,0,Wunderground v.1.15,2013-03-11 14:04:00,
2013-03-11 10:09:00,59.9,39.6,29.85,SSE,162,1.0,1.0,47,0.00,,,0.00,0,Wunderground v.1.15,2013-03-11 14:09:00,
2013-03-11 10:14:00,60.1,39.2,29.84,SSE,167,2.0,3.0,46,0.00,,,0.00,0,Wunderground v.1.15,2013-03-11 14:14:00,
2013-03-11 10:19:00,60.3,39.4,29.84,SSE,161,4.0,6.0,46,0.00,,,0.00,0,Wunderground v.1.15,2013-03-11 14:19:00,
2013-03-11 10:24:00,60.4,39.5,29.83,South,172,4.0,6.0,46,0.00,,,0.00,0,Wunderground v.1.15,2013-03-11 14:24:00,
2013-03-11 10:29:00,60.6,40.2,29.83,South,172,2.0,4.0,47,0.00,,,0.00,0,Wunderground v.1.15,2013-03-11 14:29:00,
2013-03-11 10:34:00,60.7,40.3,29.82,South,171,4.0,6.0,47,0.00,,,0.00,0,Wunderground v.1.15,2013-03-11 14:34:00,
2013-03-11 10:40:00,60.9,41.1,29.81,SSE,158,2.0,4.0,48,0.00,,,0.00,0,Wunderground v.1.15,2013-03-11 14:40:00,
2013-03-11 10:45:00,61.1,41.2,29.81,South,178,5.0,6.0,48,0.00,,,0.00,0,Wunderground v.1.15,2013-03-11 14:45:00,
2013-03-11 10:50:00,61.2,41.3,29.80,SSE,163,3.0,3.0,48,0.00,,,0.00,0,Wunderground v.1.15,2013-03-11 14:50:00,
2013-03-11 10:55:00,61.2,41.3,29.80,SSE,168,1.0,6.0,48,0.00,,,0.00,0,Wunderground v.1.15,2013-03-11 14:55:00,
2013-03-11 11:00:00,61.1,41.8,29.79,SSE,159,4.0,4.0,49,0.00,,,0.00,0,Wunderground v.1.15,2013-03-11 15:00:00,
2013-03-11 11:05:00,61.1,41.8,29.78,SSE,147,4.0,6.0,49,0.00,,,0.00,0,Wunderground v.1.15,2013-03-11 15:05:00,
2013-03-11 11:10:00,61.0,42.7,29.80,SSE,155,1.0,2.0,51,0.00,,,0.00,0,Wunderground v.1.15,2013-03-11 15:10:00,
2013-03-11 11:15:00,60.9,43.1,29.80,South,176,3.0,5.0,52,0.00,,,0.00,0,Wunderground v.1.15,2013-03-11 15:15:00,
2013-03-11 11:20:00,60.9,43.6,29.81,SSE,160,2.0,5.0,53,0.00,,,0.00,0,Wunderground v.1.15,2013-03-11 15:20:00,
2013-03-11 11:25:00,60.7,43.9,29.81,SSE,168,0.0,6.0,54,0.00,,,0.00,0,Wunderground v.1.15,2013-03-11 15:25:00,
2013-03-11 11:30:00,60.6,43.9,29.82,SSE,168,0.0,1.0,54,0.00,,,0.00,0,Wunderground v.1.15,2013-03-11 15:30:00,
2013-03-11 11:35:00,60.6,44.3,29.82,SSE,168,0.0,3.0,55,0.00,,,0.00,0,Wunderground v.1.15,2013-03-11 15:35:00,
2013-03-11 11:40:00,60.6,44.3,29.82,SSE,168,0.0,1.0,55,0.00,,,0.00,0,Wunderground v.1.15,2013-03-11 15:40:00,
2013-03-11 11:45:00,60.7,44.4,29.81,WSW,246,3.0,4.0,55,0.00,,,0.00,0,Wunderground v.1.15,2013-03-11 15:45:00,
2013-03-11 11:50:00,60.8,44.5,29.81,SSE,156,3.0,6.0,55,0.00,,,0.00,0,Wunderground v.1.15,2013-03-11 15:50:00,
2013-03-11 11:56:00,61.0,44.7,29.80,SE,132,0.0,6.0,55,0.00,,,0.00,0,Wunderground v.1.15,2013-03-11 15:56:00,
2013-03-11 12:00:00,61.2,44.9,29.80,East,99,2.0,3.0,55,0.00,,,0.00,0,Wunderground v.1.15,2013-03-11 16:00:00,
2013-03-11 12:05:00,61.4,44.6,29.80,South,173,1.0,4.0,54,0.00,,,0.00,0,Wunderground v.1.15,2013-03-11 16:05:00,
2013-03-11 12:10:00,61.7,44.9,29.79,SE,140,1.0,2.0,54,0.00,,,0.00,0,Wunderground v.1.15,2013-03-11 16:10:00,
2013-03-11 12:15:00,62.0,44.7,29.79,SSE,168,1.0,5.0,53,0.00,,,0.00,0,Wunderground v.1.15,2013-03-11 16:15:00,
2013-03-11 12:20:00,62.0,44.7,29.79,SSE,168,2.0,4.0,53,0.00,,,0.00,0,Wunderground v.1.15,2013-03-11 16:20:00,
2013-03-11 12:25:00,62.2,44.9,29.79,SSE,168,2.0,4.0,53,0.00,,,0.00,0,Wunderground v.1.15,2013-03-11 16:25:00,
2013-03-11 12:30:00,62.4,45.0,29.79,South,172,1.0,8.0,53,0.00,,,0.00,0,Wunderground v.1.15,2013-03-11 16:30:00,
2013-03-11 12:35:00,62.5,45.1,29.79,SSE,154,2.0,8.0,53,0.00,,,0.00,0,Wunderground v.1.15,2013-03-11 16:35:00,
2013-03-11 12:40:00,62.6,45.2,29.79,SSE,161,2.0,6.0,53,0.00,,,0.00,0,Wunderground v.1.15,2013-03-11 16:40:00,
2013-03-11 12:45:00,62.6,45.2,29.79,SSE,167,4.0,8.0,53,0.00,,,0.00,0,Wunderground v.1.15,2013-03-11 16:45:00,
2013-03-11 12:50:00,62.8,45.4,29.78,SSE,154,3.0,8.0,53,0.00,,,0.00,0,Wunderground v.1.15,2013-03-11 16:50:00,
2013-03-11 12:55:00,62.9,45.5,29.78,South,170,1.0,8.0,53,0.00,,,0.00,0,Wunderground v.1.15,2013-03-11 16:55:00,
2013-03-11 13:00:00,62.9,46.0,29.78,SSE,160,4.0,5.0,54,0.00,,,0.00,0,Wunderground v.1.15,2013-03-11 17:00:00,
2013-03-11 13:06:00,63.0,46.1,29.78,SSW,195,3.0,6.0,54,0.00,,,0.00,0,Wunderground v.1.15,2013-03-11 17:06:00,
2013-03-11 13:11:00,63.1,46.7,29.78,South,187,4.0,7.0,55,0.00,,,0.00,0,Wunderground v.1.15,2013-03-11 17:11:00,
2013-03-11 13:16:00,63.0,46.6,29.77,South,169,4.0,10.0,55,0.00,,,0.00,0,Wunderground v.1.15,2013-03-11 17:16:00,
2013-03-11 13:21:00,63.0,46.6,29.76,South,173,2.0,6.0,55,0.00,,,0.00,0,Wunderground v.1.15,2013-03-11 17:21:00,
2013-03-11 13:26:00,63.0,46.1,29.75,SSE,168,2.0,11.0,54,0.00,,,0.00,0,Wunderground v.1.15,2013-03-11 17:26:00,
2013-03-11 13:31:00,63.1,46.2,29.76,SSE,164,7.0,7.0,54,0.00,,,0.00,0,Wunderground v.1.15,2013-03-11 17:31:00,
2013-03-11 13:36:00,63.3,46.4,29.76,South,181,2.0,10.0,54,0.00,,,0.00,0,Wunderground v.1.15,2013-03-11 17:36:00,
2013-03-11 13:41:00,63.5,46.1,29.76,SE,133,4.0,7.0,53,0.00,,,0.00,0,Wunderground v.1.15,2013-03-11 17:41:00,
2013-03-11 13:47:00,63.7,46.2,29.75,South,177,3.0,11.0,53,0.00,,,0.00,0,Wunderground v.1.15,2013-03-11 17:47:00,
2013-03-11 13:52:00,63.8,46.8,29.75,SSE,162,1.0,5.0,54,0.00,,,0.00,0,Wunderground v.1.15,2013-03-11 17:52:00,
2013-03-11 13:57:00,63.8,47.3,29.74,SSE,158,4.0,7.0,55,0.00,,,0.00,0,Wunderground v.1.15,2013-03-11 17:57:00,
2013-03-11 14:02:00,63.9,47.4,29.73,WSW,248,3.0,10.0,55,0.00,,,0.00,0,Wunderground v.1.15,2013-03-11 18:02:00,
2013-03-11 14:07:00,64.1,47.1,29.72,SSE,161,4.0,10.0,54,0.00,,,0.00,0,Wunderground v.1.15,2013-03-11 18:07:00,
2013-03-11 14:12:00,64.3,47.3,29.72,East,81,2.0,4.0,54,0.00,,,0.00,0,Wunderground v.1.15,2013-03-11 18:12:00,
2013-03-11 14:17:00,64.6,47.1,29.71,SSE,156,5.0,8.0,53,0.00,,,0.00,0,Wunderground v.1.15,2013-03-11 18:17:00,
2013-03-11 14:22:00,64.7,46.7,29.71,SSE,158,4.0,8.0,52,0.00,,,0.00,0,Wunderground v.1.15,2013-03-11 18:22:00,
2013-03-11 14:27:00,64.7,47.2,29.72,SSE,148,1.0,8.0,53,0.00,,,0.00,0,Wunderground v.1.15,2013-03-11 18:27:00,
2013-03-11 14:32:00,64.7,47.2,29.71,SSE,168,3.0,5.0,53,0.00,,,0.00,0,Wunderground v.1.15,2013-03-11 18:32:00,
2013-03-11 14:37:00,64.7,47.2,29.70,South,180,3.0,8.0,53,0.00,,,0.00,0,Wunderground v.1.15,2013-03-11 18:37:00,
2013-03-11 14:42:00,64.9,46.8,29.70,SSE,164,4.0,6.0,52,0.00,,,0.00,0,Wunderground v.1.15,2013-03-11 18:42:00,
2013-03-11 14:47:00,64.9,46.8,29.69,South,173,8.0,8.0,52,0.00,,,0.00,0,Wunderground v.1.15,2013-03-11 18:47:00,
2013-03-11 14:52:00,64.9,47.4,29.69,SSE,153,4.0,9.0,53,0.00,,,0.00,0,Wunderground v.1.15,2013-03-11 18:52:00,
2013-03-11 14:57:00,64.9,46.8,29.69,SSE,161,2.0,11.0,52,0.00,,,0.00,0,Wunderground v.1.15,2013-03-11 18:57:00,
2013-03-11 15:02:00,65.0,47.4,29.69,SSE,160,0.0,4.0,53,0.00,,,0.00,0,Wunderground v.1.15,2013-03-11 19:02:00,
2013-03-11 15:07:00,65.2,47.6,29.68,SSE,160,2.0,10.0,53,0.00,,,0.00,0,Wunderground v.1.15,2013-03-11 19:07:00,
2013-03-11 15:12:00,65.0,47.4,29.68,SSE,167,1.0,8.0,53,0.00,,,0.00,0,Wunderground v.1.15,2013-03-11 19:12:00,
2013-03-11 15:17:00,65.0,47.4,29.68,South,173,2.0,2.0,53,0.00,,,0.00,0,Wunderground v.1.15,2013-03-11 19:17:00,
2013-03-11 15:22:00,65.0,47.4,29.68,South,182,1.0,6.0,53,0.00,,,0.00,0,Wunderground v.1.15,2013-03-11 19:22:00,
2013-03-11 15:27:00,64.8,48.2,29.69,SSE,159,1.0,6.0,55,0.00,,,0.00,0,Wunderground v.1.15,2013-03-11 19:27:00,
2013-03-11 15:32:00,64.6,49.0,29.70,SSE,149,1.0,6.0,57,0.00,,,0.00,0,Wunderground v.1.15,2013-03-11 19:32:00,
2013-03-11 15:38:00,63.9,49.7,29.70,WNW,299,2.0,2.0,60,0.00,,,0.00,0,Wunderground v.1.15,2013-03-11 19:38:00,
2013-03-11 15:43:00,63.1,50.7,29.70,West,274,2.0,4.0,64,0.00,,,0.00,0,Wunderground v.1.15,2013-03-11 19:43:00,
2013-03-11 15:49:00,62.2,51.5,29.71,SSE,166,2.0,2.0,68,0.00,,,0.00,0,Wunderground v.1.15,2013-03-11 19:49:00,
2013-03-11 15:54:00,61.4,51.5,29.71,ESE,106,2.0,6.0,70,0.00,,,0.00,0,Wunderground v.1.15,2013-03-11 19:54:00,
2013-03-11 15:59:00,61.0,52.3,29.71,SE,128,0.0,1.0,73,0.00,,,0.00,0,Wunderground v.1.15,2013-03-11 19:59:00,
2013-03-11 16:04:00,60.8,52.5,29.71,ESE,121,0.0,3.0,74,0.00,,,0.00,0,Wunderground v.1.15,2013-03-11 20:04:00,
2013-03-11 16:09:00,60.8,52.8,29.70,SE,129,0.0,1.0,75,0.00,,,0.00,0,Wunderground v.1.15,2013-03-11 20:09:00,
2013-03-11 16:14:00,60.7,53.1,29.70,SE,129,1.0,3.0,76,0.00,,,0.00,0,Wunderground v.1.15,2013-03-11 20:14:00,
2013-03-11 16:19:00,60.6,53.3,29.70,SE,129,2.0,2.0,77,0.00,,,0.00,0,Wunderground v.1.15,2013-03-11 20:19:00,
2013-03-11 16:24:00,60.5,53.6,29.69,SE,129,0.0,2.0,78,0.00,,,0.00,0,Wunderground v.1.15,2013-03-11 20:24:00,
2013-03-11 16:30:00,60.6,54.0,29.69,SE,129,0.0,0.0,79,0.00,,,0.00,0,Wunderground v.1.15,2013-03-11 20:30:00,
2013-03-11 16:35:00,60.5,54.0,29.69,SE,129,0.0,1.0,79,0.00,,,0.00,0,Wunderground v.1.15,2013-03-11 20:35:00,
2013-03-11 16:40:00,60.3,53.8,29.70,SE,129,0.0,2.0,79,0.00,,,0.00,0,Wunderground v.1.15,2013-03-11 20:40:00,
2013-03-11 16:45:00,60.0,53.5,29.69,WSW,241,0.0,2.0,79,0.00,,,0.00,0,Wunderground v.1.15,2013-03-11 20:45:00,
2013-03-11 16:50:00,59.7,53.5,29.70,South,182,2.0,3.0,80,0.00,,,0.00,0,Wunderground v.1.15,2013-03-11 20:50:00,
2013-03-11 16:55:00,59.5,53.3,29.70,South,181,0.0,3.0,80,0.00,,,0.00,0,Wunderground v.1.15,2013-03-11 20:55:00,
2013-03-11 17:00:00,59.4,53.2,29.70,South,182,0.0,2.0,80,0.00,,,0.00,0,Wunderground v.1.15,2013-03-11 21:00:00,
2013-03-11 17:05:00,59.2,53.4,29.70,South,181,0.0,3.0,81,0.00,,,0.00,0,Wunderground v.1.15,2013-03-11 21:05:00,
2013-03-11 17:10:00,59.2,53.4,29.70,South,181,2.0,3.0,81,0.00,,,0.00,0,Wunderground v.1.15,2013-03-11 21:10:00,
2013-03-11 17:16:00,58.9,53.4,29.70,SSW,209,3.0,4.0,82,0.00,,,0.00,0,Wunderground v.1.15,2013-03-11 21:16:00,
2013-03-11 17:22:00,58.8,53.0,29.70,SSE,168,2.0,6.0,81,0.00,,,0.00,0,Wunderground v.1.15,2013-03-11 21:22:00,
2013-03-11 17:27:00,58.6,53.1,29.71,SSE,164,1.0,6.0,82,0.00,,,0.00,0,Wunderground v.1.15,2013-03-11 21:27:00,
2013-03-11 17:32:00,58.4,52.9,29.71,South,179,9.0,9.0,82,0.00,,,0.00,0,Wunderground v.1.15,2013-03-11 21:32:00,
2013-03-11 17:37:00,58.3,52.8,29.71,South,180,2.0,2.0,82,0.00,,,0.00,0,Wunderground v.1.15,2013-03-11 21:37:00,
2013-03-11 17:42:00,58.1,52.3,29.70,SSE,150,3.0,6.0,81,0.00,,,0.00,0,Wunderground v.1.15,2013-03-11 21:42:00,
2013-03-11 17:48:00,58.0,51.5,29.71,SSE,166,3.0,3.0,79,0.00,,,0.00,0,Wunderground v.1.15,2013-03-11 21:48:00,
2013-03-11 17:54:00,57.9,51.4,29.71,SSE,167,2.0,11.0,79,0.00,,,0.00,0,Wunderground v.1.15,2013-03-11 21:54:00,
2013-03-11 17:59:00,57.8,51.3,29.71,South,178,3.0,4.0,79,0.00,,,0.00,0,Wunderground v.1.15,2013-03-11 21:59:00,
2013-03-11 18:04:00,57.7,51.2,29.70,South,170,5.0,9.0,79,0.00,,,0.00,0,Wunderground v.1.15,2013-03-11 22:04:00,
2013-03-11 18:09:00,57.6,51.1,29.70,South,190,2.0,6.0,79,0.00,,,0.00,0,Wunderground v.1.15,2013-03-11 22:09:00,
2013-03-11 18:14:00,57.5,50.7,29.69,South,191,1.0,14.0,78,0.00,,,0.00,0,Wunderground v.1.15,2013-03-11 22:14:00,
2013-03-11 18:19:00,57.5,50.7,29.69,SSE,155,2.0,11.0,78,0.00,,,0.00,0,Wunderground v.1.15,2013-03-11 22:19:00,
2013-03-11 18:24:00,57.5,50.7,29.69,South,176,4.0,11.0,78,0.00,,,0.00,0,Wunderground v.1.15,2013-03-11 22:24:00,
2013-03-11 18:30:00,57.5,50.7,29.68,SSE,160,2.0,6.0,78,0.00,,,0.00,0,Wunderground v.1.15,2013-03-11 22:30:00,
2013-03-11 18:35:00,57.4,50.9,29.68,SSE,166,1.0,13.0,79,0.00,,,0.00,0,Wunderground v.1.15,2013-03-11 22:35:00,
2013-03-11 18:40:00,57.3,51.2,29.70,WSW,249,5.0,11.0,80,0.00,,,0.00,0,Wunderground v.1.15,2013-03-11 22:40:00,
2013-03-11 18:45:00,57.1,51.3,29.71,SE,137,5.0,11.0,81,0.00,,,0.00,0,Wunderground v.1.15,2013-03-11 22:45:00,
2013-03-11 18:50:00,57.0,51.2,29.71,South,170,4.0,6.0,81,0.00,,,0.00,0,Wunderground v.1.15,2013-03-11 22:50:00,
2013-03-11 18:55:00,56.9,51.1,29.70,South,188,2.0,8.0,81,0.00,,,0.00,0,Wunderground v.1.15,2013-03-11 22:55:00,
2013-03-11 19:00:00,56.9,51.1,29.70,South,174,2.0,10.0,81,0.00,,,0.00,0,Wunderground v.1.15,2013-03-11 23:00:00,
2013-03-11 19:05:00,56.7,50.9,29.70,SSE,168,1.0,10.0,81,0.00,,,0.00,0,Wunderground v.1.15,2013-03-11 23:05:00,
2013-03-11 19:10:00,56.7,50.9,29.71,South,169,1.0,9.0,81,0.00,,,0.00,0,Wunderground v.1.15,2013-03-11 23:10:00,
2013-03-11 19:16:00,56.7,50.9,29.72,South,172,4.0,9.0,81,0.00,,,0.00,0,Wunderground v.1.15,2013-03-11 23:16:00,
2013-03-11 19:22:00,56.7,50.9,29.72,SSE,164,3.0,5.0,81,0.00,,,0.00,0,Wunderground v.1.15,2013-03-11 23:22:00,
2013-03-11 19:27:00,56.7,50.9,29.72,SSE,166,1.0,6.0,81,0.00,,,0.00,0,Wunderground v.1.15,2013-03-11 23:27:00,
2013-03-11 19:32:00,56.7,51.3,29.70,SSW,211,1.0,5.0,82,0.00,,,0.00,0,Wunderground v.1.15,2013-03-11 23:32:00,
2013-03-11 19:37:00,56.6,51.2,29.71,SSE,165,1.0,6.0,82,0.00,,,0.00,0,Wunderground v.1.15,2013-03-11 23:37:00,
2013-03-11 19:42:00,56.5,51.1,29.71,South,173,1.0,5.0,82,0.00,,,0.00,0,Wunderground v.1.15,2013-03-11 23:42:00,
2013-03-11 19:47:00,56.4,51.0,29.72,South,173,2.0,5.0,82,0.00,,,0.00,0,Wunderground v.1.15,2013-03-11 23:47:00,
2013-03-11 19:52:00,56.3,50.9,29.72,SSE,164,2.0,4.0,82,0.00,,,0.00,0,Wunderground v.1.15,2013-03-11 23:52:00,
2013-03-11 19:57:00,56.3,50.9,29.73,SSE,158,3.0,5.0,82,0.00,,,0.00,0,Wunderground v.1.15,2013-03-11 23:57:00,
2013-03-11 20:02:00,56.4,51.0,29.73,East,79,1.0,5.0,82,0.00,,,0.00,0,Wunderground v.1.15,2013-03-12 00:02:00,
2013-03-11 20:07:00,55.4,49.3,29.74,West,277,10.0,15.0,80,0.00,,,0.00,0,Wunderground v.1.15,2013-03-12 00:07:00,
2013-03-11 20:12:00,54.3,48.6,29.75,WNW,284,1.0,12.0,81,0.00,,,0.00,0,Wunderground v.1.15,2013-03-12 00:12:00,
2013-03-11 20:17:00,53.2,47.8,29.75,West,276,5.0,12.0,82,0.00,,,0.00,0,Wunderground v.1.15,2013-03-12 00:17:00,
2013-03-11 20:22:00,52.5,47.5,29.76,WNW,284,6.0,13.0,83,0.00,,,0.00,0,Wunderground v.1.15,2013-03-12 00:22:00,
2013-03-11 20:27:00,51.8,47.4,29.75,WNW,285,7.0,7.0,85,0.00,,,0.00,0,Wunderground v.1.15,2013-03-12 00:27:00,
2013-03-11 20:32:00,51.4,47.4,29.75,WNW,288,4.0,8.0,86,0.00,,,0.00,0,Wunderground v.1.15,2013-03-12 00:32:00,
2013-03-11 20:37:00,51.2,47.5,29.76,West,274,5.0,5.0,87,0.00,,,0.00,0,Wunderground v.1.15,2013-03-12 00:37:00,
2013-03-11 20:42:00,50.9,47.5,29.76,West,274,3.0,7.0,88,0.00,,,0.00,0,Wunderground v.1.15,2013-03-12 00:42:00,
2013-03-11 20:48:00,50.7,47.6,29.76,WNW,283,2.0,2.0,89,0.00,,,0.00,0,Wunderground v.1.15,2013-03-12 00:48:00,
2013-03-11 20:53:00,50.6,47.5,29.76,SW,235,4.0,4.0,89,0.00,,,0.00,0,Wunderground v.1.15,2013-03-12 00:53:00,
2013-03-11 20:59:00,50.5,47.4,29.76,WNW,283,0.0,6.0,89,0.00,,,0.00,0,Wunderground v.1.15,2013-03-12 00:59:00,
2013-03-11 21:04:00,50.3,47.5,29.77,WNW,289,6.0,7.0,90,0.00,,,0.00,0,Wunderground v.1.15,2013-03-12 01:04:00,
2013-03-11 21:09:00,50.2,47.4,29.78,South,182,2.0,3.0,90,0.00,,,0.00,0,Wunderground v.1.15,2013-03-12 01:09:00,
2013-03-11 21:14:00,50.0,47.5,29.77,WNW,287,4.0,7.0,91,0.00,,,0.00,0,Wunderground v.1.15,2013-03-12 01:14:00,
2013-03-11 21:19:00,49.8,47.6,29.78,WNW,283,4.0,7.0,92,0.00,,,0.00,0,Wunderground v.1.15,2013-03-12 01:19:00,
2013-03-11 21:24:00,49.7,47.5,29.79,WNW,284,4.0,9.0,92,0.00,,,0.00,0,Wunderground v.1.15,2013-03-12 01:24:00,
2013-03-11 21:29:00,49.6,47.4,29.79,West,262,4.0,8.0,92,0.00,,,0.00,0,Wunderground v.1.15,2013-03-12 01:29:00,
2013-03-11 21:34:00,49.5,47.0,29.79,WNW,282,7.0,8.0,91,0.00,,,0.00,0,Wunderground v.1.15,2013-03-12 01:34:00,
2013-03-11 21:39:00,49.2,46.4,29.80,WNW,288,10.0,10.0,90,0.00,,,0.00,0,Wunderground v.1.15,2013-03-12 01:39:00,
2013-03-11 21:44:00,48.4,45.0,29.80,West,275,9.0,10.0,88,0.00,,,0.00,0,Wunderground v.1.15,2013-03-12 01:44:00,
2013-03-11 21:49:00,47.9,44.5,29.81,SW,234,2.0,12.0,88,0.00,,,0.00,0,Wunderground v.1.15,2013-03-12 01:49:00,
2013-03-11 21:54:00,47.5,44.1,29.81,WNW,291,2.0,12.0,88,0.00,,,0.00,0,Wunderground v.1.15,2013-03-12 01:54:00,
2013-03-11 22:00:00,47.2,44.1,29.81,WNW,291,6.0,7.0,89,0.00,,,0.00,0,Wunderground v.1.15,2013-03-12 02:00:00,
2013-03-11 22:05:00,47.0,43.9,29.81,WNW,292,2.0,8.0,89,0.00,,,0.00,0,Wunderground v.1.15,2013-03-12 02:05:00,
2013-03-11 22:10:00,46.8,43.7,29.82,West,281,5.0,10.0,89,0.00,,,0.00,0,Wunderground v.1.15,2013-03-12 02:10:00,
2013-03-11 22:15:00,46.6,42.6,29.82,West,280,7.0,10.0,86,0.00,,,0.00,0,Wunderground v.1.15,2013-03-12 02:15:00,
2013-03-11 22:20:00,46.3,42.3,29.82,South,185,2.0,9.0,86,0.00,,,0.00,0,Wunderground v.1.15,2013-03-12 02:20:00,
2013-03-11 22:25:00,46.1,42.1,29.82,SW,232,3.0,10.0,86,0.00,,,0.00,0,Wunderground v.1.15,2013-03-12 02:25:00,
2013-03-11 22:31:00,45.8,41.5,29.83,West,275,11.0,11.0,85,0.00,,,0.00,0,Wunderground v.1.15,2013-03-12 02:31:00,
2013-03-11 22:36:00,45.8,41.9,29.83,WNW,291,5.0,11.0,86,0.00,,,0.00,0,Wunderground v.1.15,2013-03-12 02:36:00,
2013-03-11 22:41:00,45.7,41.4,29.83,West,275,2.0,10.0,85,0.00,,,0.00,0,Wunderground v.1.15,2013-03-12 02:41:00,
2013-03-11 22:46:00,45.6,41.7,29.83,WNW,296,1.0,10.0,86,0.00,,,0.00,0,Wunderground v.1.15,2013-03-12 02:46:00,
2013-03-11 22:51:00,45.6,41.7,29.83,WSW,249,2.0,6.0,86,0.00,,,0.00,0,Wunderground v.1.15,2013-03-12 02:51:00,
2013-03-11 22:56:00,45.5,41.6,29.84,WNW,283,5.0,7.0,86,0.00,,,0.00,0,Wunderground v.1.15,2013-03-12 02:56:00,
2013-03-11 23:03:00,45.4,41.5,29.84,WNW,300,0.0,8.0,86,0.00,,,0.00,0,Wunderground v.1.15,2013-03-12 03:03:00,
2013-03-11 23:07:00,45.4,41.5,29.84,South,174,1.0,8.0,86,0.00,,,0.00,0,Wunderground v.1.15,2013-03-12 03:07:00,
2013-03-11 23:12:00,45.4,41.5,29.84,West,264,0.0,3.0,86,0.00,,,0.00,0,Wunderground v.1.15,2013-03-12 03:12:00,
2013-03-11 23:17:00,45.3,41.4,29.84,West,266,1.0,9.0,86,0.00,,,0.00,0,Wunderground v.1.15,2013-03-12 03:17:00,
2013-03-11 23:22:00,45.3,40.7,29.85,WNW,288,3.0,8.0,84,0.00,,,0.00,0,Wunderground v.1.15,2013-03-12 03:22:00,
2013-03-11 23:27:00,45.2,41.0,29.85,West,271,9.0,9.0,85,0.00,,,0.00,0,Wunderground v.1.15,2013-03-12 03:27:00,
2013-03-11 23:32:00,45.1,39.3,29.85,West,279,8.0,13.0,80,0.00,,,0.00,0,Wunderground v.1.15,2013-03-12 03:32:00,
2013-03-11 23:38:00,44.9,39.4,29.85,WSW,241,2.0,13.0,81,0.00,,,0.00,0,Wunderground v.1.15,2013-03-12 03:38:00,
2013-03-11 23:43:00,44.7,38.6,29.85,West,259,6.0,12.0,79,0.00,,,0.00,0,Wunderground v.1.15,2013-03-12 03:43:00,
2013-03-11 23:48:00,44.6,38.5,29.85,SW,229,1.0,12.0,79,0.00,,,0.00,0,Wunderground v.1.15,2013-03-12 03:48:00,
2013-03-11 23:53:00,44.5,38.1,29.85,West,264,4.0,6.0,78,0.00,,,0.00,0,Wunderground v.1.15,2013-03-12 03:53:00,
2013-03-11 23:58:00,44.5,37.4,29.85,West,281,4.0,13.0,76,0.00,,,0.00,0,Wunderground v.1.15,2013-03-12 03:58:00,